Showing default

LINGQIAO VIDEO B, 40960

Orbit data source: Space-Track

LINGQIAO VIDEO B, 40960 is a payload satellite owned by Changguang WJ (CN) in SSO that was launched on Wed, 07 Oct 2015 UTC via a CHANG ZHENG 2D launch vehicle from the Jiuquan Satellite Launch Center, China (JSC). Payload-class satellites include a variety of spacecraft equipped with specific instruments for various scientific and technological missions. These include communications satellites like Starlink; space stations such as the ISS; scientific satellites like the Hubble; Earth observation satellites from companies like Planet Labs, Umbra, and HawkEye 360; GPS; miniature CubeSats for education and research; and military/defense satellites.

Loading next visibility...
Identifier
40960, 2015-057C
Orbit
SSO
Country
Flag of CNCN / PRC
Related business
Manufacturer
HARB/CIOMP
Mission
Operational Commercial Imaging
Bus & Motor
JL-1, Unknown motor
Mass
95 kg wet, 95 kg dry
Launch date (UTC)
2015-10-07 (11 years ago)
Launch vehicle
CHANG ZHENG 2D
Launch site
Jiuquan Satellite Launch Center, China (JSC)
Object type
Payload
Rocket body
Debris
Shape & HBR
Box, 0.8 m
Radar Cross Section
2.000 m², Medium (>0.1 m² and < 1m²)

Expand to show TLE details & history
Last TLE update: 22 hours ago

TLE from 22 hours ago
0 LINGQIAO VIDEO B
1 40960U 15057C   26172.53707536  .00000262  00000-0  43534-4 0  9994
2 40960  97.6589 168.2872 0015323 254.8340 105.1177 14.77502636576099
Epoch: 2026-06-21T12:53Z
TLE epoch observation values (Epoch: 2026-06-21T12:53:23.311Z)
Latitude
0.00003°
Longitude
65.20414°
Altitude
643.063 km
Speed
7.535 km/s
True Right ascension
11h 13m 08s
True Declination
0° 00' 00"
Sunlit
Object was in daylight at epoch
Visualization orbit readout
Latitude
Unknown
Longitude
Unknown
Altitude
Unknown
Speed
Unknown
Apparent Right ascension
Unknown
Apparent Declination
Unknown
Sunlit
N/A
Visualization observer readout
Local Sidereal Time
21:34:49
Azimuth
Unknown
Elevation
Unknown
Doppler factor
Unknown
Orbital elements
Apogee altitude
644.997 km
Perigee altitude
623.507 km
Semi-major axis
7,012.389 km
Eccentricity
0.00153
Inclination
97.6589°
RAAN
168.2872°
Arg. of periapsis
254.834°
True anomaly
105.28713°
Mean anomaly
105.1177°
Eccentric anomaly
105.20242°
Mean motion
3.6961 °/min
Orbital period
97.4 mins
BSTAR
0.000043534
Loading maneuver chart data...
Computing Atmospheric mass density...
Loading historical data...
Loading historical data...
Loading historical data...
Loading historical data...
Loading historical data...
Loading historical data...
Loading historical data...
Other satellites on launch #57 in the year 2015 (2015-10-07 UTC)

Documentation

Showing up to 5 results
|